Regional Weather Roundup
Issued by NWS

Home | Current Version | Previous Version | Graphics & Text | Print | Product List | Glossary On
Versions: 1 2 3 4 5 6 7 8 9 10 11 12 13 14 15 16 17 18 19 20 21 22 23 24 25 26 27
000
ASUS45 KBOU 240806
RWRCO

WEATHER ROUNDUP FOR COLORADO
NATIONAL WEATHER SERVICE DENVER/BOULDER CO
200 AM MDT THU APR 24 2014

NOTE: "FAIR" INDICATES FEW OR NO CLOUDS BELOW 12000 FEET WITH NO
SIGNIFICANT WEATHER AND/OR OBSTRUCTIONS TO VISIBILITY.

COZ001>005-013-030-031-240900-
...NORTHWEST COLORADO...

CITY           SKY/WX    TMP DP  RH WIND       PRES   REMARKS
CRAIG          CLEAR     26  17  68 CALM      30.09S
HAYDEN         CLEAR     28  14  54 CALM      30.10F
MEEKER         CLEAR     28  17  63 CALM      30.10R
MOUNT WERNER   MOCLDY    21  10  63 W22G28    30.05F WCI   5
STEAMBOAT SPGS MOCLDY    29  15  55 CALM      30.08S
WALDEN         PTCLDY    25  10  54 W6        30.03S WCI  18
$$

COZ006>008-011-240900-
...WEST CENTRAL VALLEYS...

CITY           SKY/WX    TMP DP  RH WIND       PRES   REMARKS
GRAND JUNCTION CLEAR     38   9  30 N5        30.07R
MONTROSE       CLEAR     34  16  47 SE7       30.11R WCI  28
EAGLE          CLEAR     28  18  64 CALM      30.12R
RIFLE          CLEAR     34  14  43 SE6       30.09R WCI  29
DELTA          NOT AVBL
NUCLA          NOT AVBL
$$

COZ017>023-064>068-240900-
...SOUTHWEST COLORADO...

CITY           SKY/WX    TMP DP  RH WIND       PRES   REMARKS
DURANGO        CLEAR     36   8  31 VRB6      30.01S
CORTEZ         CLEAR     34  13  41 E5        30.07R WCI  30
PAGOSA SPRINGS CLEAR     33  11  40 CALM      30.02R
TELLURIDE      NOT AVBL
WOLF CREEK PAS CLEAR     18   5  57 E13       30.06S WCI   4
$$

COZ009-010-012-014-032>034-037-058>063-240900-
...CENTRAL COLORADO...

CITY           SKY/WX    TMP DP  RH WIND       PRES   REMARKS
ASPEN          CLEAR     30  14  51 CALM      30.07R
BUENA VISTA    CLEAR     34   9  35 N6G12     30.00R WCI  29
COPPER MTN     CLOUDY    18   9  68 W14       30.06R WCI   4
BERTHOUD PASS  FAIR       9  -2  61 NW40G47   29.95S WCI -17
COTTONWOOD PAS CLEAR     32   5  32 W14G23    30.02R WCI  22
GUNNISON       CLEAR     30   9  40 W3        30.09R
KREMMLING      PTCLDY    32  10  40 W12       30.08S WCI  23
LEADVILLE      CLEAR     22   8  55 N10       30.05R WCI  11
MONARCH PASS   CLEAR     18   9  68 W35       30.12R WCI  -3
SALIDA         CLEAR     37  11  33 SW5       30.07S
SUNLIGHT       CLEAR     21  12  68 CALM      30.11S
WILKERSON PASS PTCLDY    21   9  58 NW7G16    30.04R WCI  13
$$

COZ069>075-240900-
...SAN LUIS VALLEY/SANGRE DE CRISTO MOUNTAINS...

CITY           SKY/WX    TMP DP  RH WIND       PRES   REMARKS
ALAMOSA        CLEAR     37  10  32 N17       30.00R
LA VETA PASS   PTCLDY    27  12  54 CALM      30.03R
SAGUACHE       CLEAR     34   7  32 NW9       30.02R WCI  26
$$

COZ035-036-038>040-240900-
...NORTHERN COLORADO FRONT RANGE...

CITY           SKY/WX    TMP DP  RH WIND       PRES   REMARKS
DENVER INTL AP CLOUDY    40  36  86 SW6       29.95R
DMNS CITY PARK   N/A     40  36  85 S6        29.96R
AURORA         MOCLDY    39  36  87 S6        29.96R
FRONT RANGE AP NOT AVBL
ERIE MUNI ARPT PTCLDY    40  37  92 NE5       29.94S
BOULDER MUN AP PTCLDY    41  36  81 N9G18     29.93R
CENTENNIAL     PTCLDY    36  33  89 SW9       29.95S
BROOMFIELD     PTCLDY    41  32  70 NW8       29.95R
FORT COLLINS   MOCLDY    43  12  28 N20G25    29.97R
LONGMONT       NOT AVBL
$$

COZ041-046-047-076>085-087-088-240900-
...PIKES PEAK/PALMER DIVIDE AND SOUTHERN FOOTHILLS...

CITY           SKY/WX    TMP DP  RH WIND       PRES   REMARKS
COLO. SPRINGS  MOCLDY    38  30  73 NW8       29.97S
A. F. ACADEMY  PTCLDY    34  33  98 NW8       29.97S WCI  27
ELLICOTT       NOT AVBL
FALCON         MOCLDY    34  29  82 N12G17    29.97R WCI  26
FORT CARSON    PTCLDY    38  32  78 N16       29.95R
LIMON          CLOUDY    39  31  72 NW9       29.94R
MONUMENT HILL  MOCLDY    30  30 100 W7        29.96R WCI  23
TRINIDAD       CLOUDY    40  34  79 NE17      29.98R
$$

COZ042>045-048>051-090-091-240900-
...NORTHEAST COLORADO...

CITY           SKY/WX    TMP DP  RH WIND       PRES   REMARKS
GREELEY ARPT   MOCLDY    45   9  23 NW24      29.96R
AKRON          CLOUDY    45  27  49 N17       29.90R
BURLINGTON     CLOUDY    52  21  29 N22G45    29.88R
WRAY           CLOUDY    54  16  22 NW20G26   29.83S
STERLING       NOT AVBL
HOLYOKE        NOT AVBL
FORT MORGAN    NOT AVBL
$$

COZ086-089-092>099-240900-
...SOUTHEAST COLORADO...

CITY           SKY/WX    TMP DP  RH WIND       PRES   REMARKS
PUEBLO         MOCLDY    43  33  68 S6        29.96R
LA JUNTA       RAIN      43  38  82 N26G36    29.93R
LAMAR          LGT RAIN  43  38  82 N23G30    29.92R
SPRINGFIELD      N/A     43  33  68 N41G51    29.88R
$$



USA.gov is the U.S. government's official web portal to all federal, state and local government web resources and services.